Tampa Macdill AFB, FL

5:46 PM EDT on April 30, 2017 (GMT -0400)
MacDill Air Force Base

Weather History for KMCF - October, 2011

Change the Weather History Date:

Saturday, October 22, 2011

  Actual Average Record
Temperature  
Mean Temperature 63 °F -  
Max Temperature 74 °F 81 °F 91 °F (2010)
Min Temperature 52 °F 64 °F 52 °F (2011)
Degree Days  
Heating Degree Days 2    
Growing Degree Days 13 (Base 50)    
Moisture  
Dew Point 48 °F    
Average Humidity 60    
Maximum Humidity 83    
Minimum Humidity 35    
Precipitation  
Precipitation 0.00 in - - ()
Sea Level Pressure  
Sea Level Pressure 30.04 in    
Wind  
Wind Speed 7 mph (North)    
Max Wind Speed 12 mph    
Max Gust Speed 18 mph    
Visibility 10 miles    
Events      
Averages and records for this station are not official NWS values.
T = Trace of Precipitation, MM = Missing Value Source: NWS Daily Summary

Daily Weather History Graph

Daily Weather History Graph

Search for Another Location

Airport or City:

Trip Planner

Search our weather history database for the weather conditions in past years. The results will help you decide how hot, cold, wet, or windy it might be!

Date:

Astronomy

Oct. 22, 2011 Rise Set
Actual Time 7:34 AM EDT 6:54 PM EDT
Civil Twilight 7:10 AM EDT 7:18 PM EDT
Nautical Twilight 6:43 AM EDT 7:45 PM EDT
Astronomical Twilight 6:15 AM EDT 8:12 PM EDT
Moon 2:55 AM EDT (10/22) 3:50 PM EDT (10/22)
Length of Visible Light 12h 07m
Length of Day
11h 20m
Waning Crescent, 24% of the Moon is Illuminated
Oct 22
Waning Crescent
Oct 26
New
Nov 2
First Quarter
Nov 10
Full
Nov 18
Last Quarter

Hourly Weather History & Observations

Time (EDT) Temp. Dew Point Humidity Pressure Visibility Wind Dir Wind Speed Gust Speed Precip Events Conditions
12:55 AM 55.0 °F 49.1 °F 80% 30.08 in 10.0 mi North 5.8 mph - N/A   Clear
1:55 AM 55.0 °F 50.0 °F 83% 30.07 in 10.0 mi North 5.8 mph - N/A   Clear
2:55 AM 55.4 °F 48.7 °F 78% 30.06 in 10.0 mi NNE 8.1 mph - N/A   Clear
3:55 AM 54.7 °F 46.6 °F 74% 30.05 in 10.0 mi NNE 4.6 mph - N/A   Clear
4:55 AM 53.1 °F 45.5 °F 75% 30.05 in 10.0 mi North 5.8 mph - N/A   Clear
5:55 AM 52.3 °F 45.5 °F 78% 30.05 in 10.0 mi North 6.9 mph - N/A   Clear
6:55 AM 52.9 °F 45.7 °F 77% 30.06 in 10.0 mi North 6.9 mph - N/A   Clear
7:55 AM 53.2 °F 43.9 °F 71% 30.07 in 10.0 mi North 8.1 mph - N/A   Clear
8:55 AM 58.3 °F 44.6 °F 60% 30.09 in 10.0 mi North 9.2 mph - N/A   Clear
9:55 AM 64.4 °F 43.3 °F 46% 30.10 in 10.0 mi North 10.4 mph 18.4 mph N/A   Clear
10:55 AM 68.4 °F 43.5 °F 41% 30.10 in 10.0 mi North 11.5 mph - N/A   Clear
11:55 AM 70.9 °F 42.8 °F 36% 30.09 in 10.0 mi Variable 5.8 mph - N/A   Clear
12:55 PM 73.9 °F 44.2 °F 35% 30.07 in 10.0 mi North 9.2 mph - N/A   Clear
1:55 PM 73.8 °F 45.5 °F 36% 30.04 in 10.0 mi NW 10.4 mph - N/A   Clear
2:55 PM 74.1 °F 47.8 °F 39% 30.01 in 10.0 mi Variable 6.9 mph - N/A   Clear
3:55 PM 74.3 °F 49.3 °F 41% 29.99 in 10.0 mi WNW 8.1 mph - N/A   Clear
4:55 PM 73.0 °F 50.9 °F 46% 29.99 in 10.0 mi WNW 6.9 mph - N/A   Clear
5:55 PM 71.6 °F 51.8 °F 50% 29.99 in 10.0 mi WNW 9.2 mph - N/A   Clear
6:55 PM 67.5 °F 53.4 °F 61% 29.99 in 10.0 mi NW 6.9 mph - N/A   Clear
7:55 PM 65.5 °F 52.3 °F 62% 30.00 in 10.0 mi NNW 6.9 mph - N/A   Mostly Cloudy
8:55 PM 64.4 °F 51.4 °F 63% 30.02 in 10.0 mi Variable 6.9 mph - N/A   Mostly Cloudy
9:55 PM 64.4 °F 51.6 °F 63% 30.03 in 10.0 mi North 4.6 mph - N/A   Overcast
10:55 PM 62.8 °F 51.4 °F 66% 30.04 in 10.0 mi NNE 4.6 mph - N/A   Overcast
11:55 PM 61.0 °F 51.3 °F 70% 30.04 in 10.0 mi NNE 6.9 mph - N/A   Partly Cloudy